Terminal Aerodrome Forecast
Issued by NWS Cleveland, OH

Home | Current Version | Previous Version | Text Only | Print | Product List | Glossary Off
Versions: 1 2 3 4 5 6 7 8 9 10 11 12 13 14 15 16 17 18 19

501
FTUS41 KCLE 120520
TAFCAK
TAF
KCAK 120520Z 1206/1306 24006KT P6SM SCT040 BKN100
     FM121500 23012KT P6SM SCT035 OVC100
     FM122100 26014G20KT 4SM -SHSN OVC020=

USA.gov is the U.S. government's official web portal to all federal, state and local government web resources and services.